"1997/01/01", 86, 99, 72
"1997/01/02", 59, 86, 28
"1997/01/03", 44, 75, 24
"1997/01/04", 40, 57, 24
"1997/01/05", 71,100, 36
"1997/01/06", 69,100, 31
"1997/01/07", 66, 90, 41
"1997/01/08", 68, 91, 39
"1997/01/09", 63, 92, 35
"1997/01/10", 74, 95, 47
"1997/01/11", 64, 97, 33
"1997/01/12", 66, 84, 40
"1997/01/13", 69, 92, 39
"1997/01/14", 76, 98, 48
"1997/01/15", 61, 94, 33
"1997/01/16", 59, 80, 37
"1997/01/17", 67, 89, 36
"1997/01/18", 61, 85, 28
"1997/01/19", 55, 81, 37
"1997/01/20", 70, 99, 34
"1997/01/21", 71, 99, 35
"1997/01/22", 54, 91, 28
"1997/01/23", 51, 79, 36
"1997/01/24", 72, 97, 37
"1997/01/25", 58, 98, 29
"1997/01/26", 39, 57, 28
"1997/01/27", 54, 82, 25
"1997/01/28", 78, 96, 54
"1997/01/29", 55, 92, 22
"1997/01/30", 48, 75, 28
"1997/01/31", 62, 87, 33
"1997/02/01", 57, 83, 28
"1997/02/02", 62, 89, 26
"1997/02/03", 92,100, 45
"1997/02/04","*","*","*"
"1997/02/05","*","*","*"
"1997/02/06","*","*","*"
"1997/02/07","*","*","*"
"1997/02/08","*","*","*"
"1997/02/09","*","*","*"
"1997/02/10","*","*","*"
"1997/02/11","*","*","*"
"1997/02/12","*","*","*"
"1997/02/13", 47, 71, 27
"1997/02/14", 52, 83, 23
"1997/02/15", 66, 87, 45
"1997/02/16", 96,100, 73
"1997/02/17", 44, 91, 23
"1997/02/18", 44, 68, 21
"1997/02/19", 42, 72, 21
"1997/02/20", 54, 95, 21
"1997/02/21", 51, 96, 22
"1997/02/22", 42, 62, 24
"1997/02/23", 49, 91, 27
"1997/02/24", 67, 96, 38
"1997/02/25", 73,100, 30
"1997/02/26", 49, 84, 14
"1997/02/27", 62, 95, 36
"1997/02/28", 80, 97, 63
"1997/03/01", 71,100, 38
"1997/03/02", 54, 92, 27
"1997/03/03", 66, 94, 41
"1997/03/04", 78, 99, 52
"1997/03/05", 64,100, 19
"1997/03/06", 69, 84, 49
"1997/03/07", 69, 89, 54
"1997/03/08", 52, 84, 19
"1997/03/09", 40, 67, 16
"1997/03/10", 60, 90, 33
"1997/03/11", 55, 95, 16
"1997/03/12", 50, 77, 18
"1997/03/13", 62, 88, 41
"1997/03/14", 83, 95, 51
"1997/03/15", 88, 97, 76
"1997/03/16", 93, 98, 76
"1997/03/17", 63, 85, 37
"1997/03/18", 63, 93, 38
"1997/03/19", 81, 97, 60
"1997/03/20", 59, 86, 36
"1997/03/21", 67, 92, 39
"1997/03/22", 91, 99, 77
"1997/03/23", 79, 98, 63
"1997/03/24", 58, 98, 27
"1997/03/25", 57, 91, 34
"1997/03/26", 74, 94, 44
"1997/03/27", 90, 99, 73
"1997/03/28", 66, 97, 24
"1997/03/29", 75,100, 40
"1997/03/30", 76,100, 38
"1997/03/31", 65, 88, 47
"1997/04/01", 62, 94, 38
"1997/04/02", 87, 94, 73
"1997/04/03", 95, 99, 85
"1997/04/04", 96,100, 81
"1997/04/05",100,100,100
"1997/04/06",100,100, 99
"1997/04/07", 96,100, 77
"1997/04/08", 68, 97, 35
"1997/04/09", 75, 95, 47
"1997/04/10", 45, 89, 19
"1997/04/11", 52, 87, 19
"1997/04/12", 46, 91, 24
"1997/04/13", 62, 99, 21
"1997/04/14", 79, 95, 54
"1997/04/15", 68, 89, 46
"1997/04/16", 67, 84, 45
"1997/04/17", 75, 89, 42
"1997/04/18", 76, 99, 43
"1997/04/19", 79, 97, 51
"1997/04/20", 69, 83, 54
"1997/04/21", 69, 87, 44
"1997/04/22", 88, 99, 64
"1997/04/23", 90,100, 61
"1997/04/24", 53, 94, 20
"1997/04/25", 39, 69, 17
"1997/04/26", 51, 89, 13
"1997/04/27", 56, 92, 23
"1997/04/28", 91,100, 75
"1997/04/29", 82,100, 47
"1997/04/30", 79, 96, 55
"1997/05/01", 78, 96, 52
"1997/05/02", 81,100, 49
"1997/05/03", 74, 99, 42
"1997/05/04", 96,100, 80
"1997/05/05", 86,100, 51
"1997/05/06", 79, 96, 58
"1997/05/07", 76, 99, 45
"1997/05/08", 84, 98, 73
"1997/05/09", 76,100, 45
"1997/05/10", 69, 95, 46
"1997/05/11", 69, 89, 44
"1997/05/12", 81, 92, 61
"1997/05/13", 81, 91, 64
"1997/05/14", 95,100, 78
"1997/05/15", 96,100, 85
"1997/05/16", 87,100, 65
"1997/05/17", 91, 99, 68
"1997/05/18", 80, 96, 55
"1997/05/19", 88, 98, 62
"1997/05/20", 95, 98, 88
"1997/05/21", 85, 99, 52
"1997/05/22", 83, 97, 58
"1997/05/23", 85, 95, 71
"1997/05/24", 93, 99, 73
"1997/05/25", 91,100, 76
"1997/05/26", 77, 97, 55
"1997/05/27", 87, 95, 69
"1997/05/28", 71, 96, 42
"1997/05/29", 69, 91, 43
"1997/05/30", 79, 93, 51
"1997/05/31", 92, 98, 76
"1997/06/01", 83, 97, 62
"1997/06/02", 82, 97, 65
"1997/06/03", 73, 91, 51
"1997/06/04", 90, 99, 71
"1997/06/05", 71, 98, 30
"1997/06/06", 90, 99, 71
"1997/06/07", 76,100, 42
"1997/06/08", 88, 98, 76
"1997/06/09", 96,100, 92
"1997/06/10", 93,100, 71
"1997/06/11", 92, 99, 72
"1997/06/12", 90, 99, 75
"1997/06/13", 85, 95, 64
"1997/06/14", 80, 96, 55
"1997/06/15", 82, 99, 50
"1997/06/16", 91, 98, 77
"1997/06/17", 90, 96, 79
"1997/06/18", 92,100, 80
"1997/06/19", 92,100, 80
"1997/06/20", 94,100, 83
"1997/06/21", 71, 92, 37
"1997/06/22", 87, 97, 69
"1997/06/23", 92, 99, 70
"1997/06/24", 86,100, 48
"1997/06/25", 87,100, 64
"1997/06/26", 81, 97, 58
"1997/06/27", 86, 98, 63
"1997/06/28", 87, 96, 74
"1997/06/29", 72, 96, 35
"1997/06/30", 70, 96, 39
"1997/07/01", 83, 99, 50
"1997/07/02", 87, 99, 65
"1997/07/03", 82, 99, 51
"1997/07/04", 74, 97, 45
"1997/07/05", 74, 93, 53
"1997/07/06", 81, 95, 49
"1997/07/07", 79, 97, 59
"1997/07/08", 79, 92, 63
"1997/07/09", 83, 99, 65
"1997/07/10", 98,100, 93
"1997/07/11", 97, 99, 90
"1997/07/12", 98,100, 96
"1997/07/13", 93,100, 80
"1997/07/14", 93,100, 68
"1997/07/15", 84, 99, 56
"1997/07/16", 80, 95, 54
"1997/07/17", 89, 97, 77
"1997/07/18", 84, 99, 58
"1997/07/19", 77, 98, 45
"1997/07/20", 84, 98, 57
"1997/07/21", 88,100, 64
"1997/07/22", 91,100, 70
"1997/07/23", 97,100, 85
"1997/07/24", 93,100, 76
"1997/07/25", 93,100, 80
"1997/07/26", 94,100, 80
"1997/07/27", 88, 98, 64
"1997/07/28", 88, 98, 67
"1997/07/29", 82, 98, 50
"1997/07/30", 87, 99, 72
"1997/07/31", 93,100, 77
"1997/08/01", 84,100, 59
"1997/08/02", 88,100, 70
"1997/08/03", 87,100, 66
"1997/08/04", 79, 98, 55
"1997/08/05", 86, 98, 74
"1997/08/06", 90, 98, 69
"1997/08/07", 89, 98, 57
"1997/08/08", 89, 99, 71
"1997/08/09", 79, 90, 66
"1997/08/10", 82, 93, 72
"1997/08/11", 88,100, 73
"1997/08/12", 91, 99, 83
"1997/08/13", 84, 99, 53
"1997/08/14", 93, 97, 81
"1997/08/15", 90, 96, 74
"1997/08/16", 85, 94, 76
"1997/08/17", 80, 93, 63
"1997/08/18", 85, 93, 73
"1997/08/19", 82, 95, 61
"1997/08/20", 77, 98, 47
"1997/08/21", 90, 97, 75
"1997/08/22","*","*","*"
"1997/08/23", 89, 98, 69
"1997/08/24", 77, 99, 41
"1997/08/25", 90, 97, 78
"1997/08/26", 93, 96, 85
"1997/08/27", 85,100, 60
"1997/08/28", 84, 98, 64
"1997/08/29", 85, 97, 60
"1997/08/30", 78, 96, 52
"1997/08/31", 81, 98, 60
"1997/09/01", 82,100, 49
"1997/09/02", 73, 97, 38
"1997/09/03", 87,100, 61
"1997/09/04", 88, 99, 74
"1997/09/05", 91, 96, 81
"1997/09/06", 85, 96, 62
"1997/09/07", 82, 98, 60
"1997/09/08", 93,100, 66
"1997/09/09", 97, 99, 94
"1997/09/10", 87,100, 58
"1997/09/11", 89, 98, 77
"1997/09/12", 91, 98, 82
"1997/09/13", 90, 97, 81
"1997/09/14", 94, 99, 87
"1997/09/15", 89, 96, 79
"1997/09/16", 89,100, 74
"1997/09/17", 92,100, 66
"1997/09/18", 97,100, 87
"1997/09/19", 80, 99, 54
"1997/09/20", 70, 87, 51
"1997/09/21", 92,100, 72
"1997/09/22", 85, 97, 65
"1997/09/23", 91, 97, 83
"1997/09/24", 85, 91, 70
"1997/09/25", 78, 91, 63
"1997/09/26", 96,100, 80
"1997/09/27", 83, 99, 58
"1997/09/28", 66, 84, 42
"1997/09/29", 69, 89, 41
"1997/09/30", 62, 93, 41
"1997/10/01", 60, 78, 40
"1997/10/02", 72, 90, 44
"1997/10/03", 81, 97, 56
"1997/10/04", 86, 99, 65
"1997/10/05", 90,100, 72
"1997/10/06", 70, 96, 51
"1997/10/07", 90, 99, 71
"1997/10/08", 76,100, 37
"1997/10/09", 64, 92, 43
"1997/10/10", 85, 98, 61
"1997/10/11", 78, 99, 39
"1997/10/12", 71, 90, 33
"1997/10/13", 71, 92, 29
"1997/10/14", 76, 98, 36
"1997/10/15", 71, 99, 41
"1997/10/16", 68, 92, 40
"1997/10/17", 87, 99, 76
"1997/10/18", 88,100, 45
"1997/10/19", 79, 96, 63
"1997/10/20", 84,100, 54
"1997/10/21","*","*","*"
"1997/10/22", 88,100, 74
"1997/10/23", 82, 94, 65
"1997/10/24", 89, 98, 71
"1997/10/25", 80, 98, 49
"1997/10/26", 62, 86, 25
"1997/10/27", 53, 88, 28
"1997/10/28", 67, 87, 41
"1997/10/29", 78, 97, 49
"1997/10/30", 76, 99, 38
"1997/10/31", 74, 93, 30
"1997/11/01", 50, 85, 24
"1997/11/02", 69, 97, 47
"1997/11/03", 92, 98, 76
"1997/11/04", 94,100, 82
"1997/11/05", 87,100, 46
"1997/11/06", 60, 89, 38
"1997/11/07", 66, 91, 40
"1997/11/08", 69, 96, 41
"1997/11/09", 66, 97, 40
"1997/11/10", 75, 86, 60
"1997/11/11", 75, 99, 32
"1997/11/12", 86, 99, 57
"1997/11/13", 95,100, 86
"1997/11/14", 96, 99, 90
"1997/11/15", 95,100, 81
"1997/11/16", 80, 94, 59
"1997/11/17", 99,100, 81
"1997/11/18", 62,100, 26
"1997/11/19", 63, 93, 34
"1997/11/20", 86, 99, 70
"1997/11/21", 96,100, 87
"1997/11/22",100,100,100
"1997/11/23", 76,100, 43
"1997/11/24", 66, 89, 38
"1997/11/25", 77, 96, 54
"1997/11/26", 91,100, 79
"1997/11/27", 78, 96, 55
"1997/11/28", 70, 85, 52
"1997/11/29", 96,100, 77
"1997/11/30", 77, 98, 51
"1997/12/01", 82, 99, 58
"1997/12/02", 85, 99, 38
"1997/12/03", 49, 75, 25
"1997/12/04", 61, 80, 37
"1997/12/05", 72, 91, 50
"1997/12/06", 84, 93, 67
"1997/12/07", 91, 99, 78
"1997/12/08",100,100, 97
"1997/12/09", 94,100, 78
"1997/12/10", 63, 88, 27
"1997/12/11", 57, 90, 34
"1997/12/12", 53, 85, 26
"1997/12/13", 61, 76, 42
"1997/12/14", 69, 91, 47
"1997/12/15", 68, 95, 38
"1997/12/16", 69, 93, 40
"1997/12/17", 84,100, 71
"1997/12/18", 93,100, 74
"1997/12/19", 83,102, 41
"1997/12/20", 82, 99, 54
"1997/12/21", 69, 93, 44
"1997/12/22", 61, 74, 47
"1997/12/23", 70, 84, 58
"1997/12/24", 70, 81, 59
"1997/12/25", 71, 81, 55
"1997/12/26", 80, 89, 60
"1997/12/27", 85, 99, 74
"1997/12/28", 75, 99, 53
"1997/12/29", 64, 86, 37
"1997/12/30", 94,100, 69
"1997/12/31", 71, 98, 45
